TimeEDT,TemperatureF,Dew PointF,Humidity,Sea Level PressureIn,VisibilityMPH,Wind Direction,Wind SpeedMPH,Gust SpeedMPH,PrecipitationIn,Events,Conditions,WindDirDegrees,DateUTC
12:53 AM,46.0,45.0,96,30.10,3.0,Calm,Calm,-,N/A,,Clear,0,2011-10-23 04:53:00
1:53 AM,46.0,44.1,93,30.10,6.0,Calm,Calm,-,N/A,,Clear,0,2011-10-23 05:53:00
2:53 AM,45.0,43.0,93,30.09,9.0,Calm,Calm,-,N/A,,Clear,0,2011-10-23 06:53:00
3:53 AM,44.1,42.1,93,30.09,7.0,Calm,Calm,-,N/A,,Clear,0,2011-10-23 07:53:00
4:53 AM,43.0,41.0,93,30.08,6.0,Calm,Calm,-,0.01,,Clear,0,2011-10-23 08:53:00
5:53 AM,42.1,39.9,92,30.09,7.0,Calm,Calm,-,N/A,,Clear,0,2011-10-23 09:53:00
6:53 AM,42.1,39.9,92,30.10,8.0,Calm,Calm,-,N/A,,Clear,0,2011-10-23 10:53:00
7:53 AM,41.0,39.9,96,30.12,5.0,Calm,Calm,-,N/A,,Clear,0,2011-10-23 11:53:00
8:53 AM,46.9,45.0,93,30.14,8.0,Calm,Calm,-,N/A,,Clear,0,2011-10-23 12:53:00
9:53 AM,57.0,50.0,77,30.14,10.0,ENE,4.6,-,N/A,,Clear,70,2011-10-23 13:53:00
10:53 AM,63.0,48.0,58,30.14,10.0,ENE,5.8,-,N/A,,Clear,70,2011-10-23 14:53:00
11:53 AM,66.0,46.9,50,30.14,10.0,ENE,6.9,-,N/A,,Clear,70,2011-10-23 15:53:00
12:53 PM,68.0,46.0,45,30.13,10.0,NE,3.5,-,N/A,,Clear,50,2011-10-23 16:53:00
1:53 PM,69.1,45.0,42,30.11,10.0,Variable,3.5,-,N/A,,Clear,0,2011-10-23 17:53:00
2:53 PM,70.0,46.0,42,30.08,10.0,Variable,5.8,-,N/A,,Clear,0,2011-10-23 18:53:00
3:53 PM,70.0,45.0,41,30.06,10.0,East,4.6,-,N/A,,Clear,100,2011-10-23 19:53:00
4:53 PM,71.1,46.0,41,30.05,10.0,NE,8.1,-,N/A,,Clear,50,2011-10-23 20:53:00
5:53 PM,69.1,46.0,44,30.05,10.0,ENE,3.5,-,N/A,,Clear,60,2011-10-23 21:53:00
6:53 PM,60.1,48.9,67,30.06,10.0,Calm,Calm,-,N/A,,Clear,0,2011-10-23 22:53:00
8:53 PM,53.1,50.0,89,30.10,10.0,Calm,Calm,-,N/A,,Clear,0,2011-10-24 00:53:00
9:53 PM,51.1,48.9,92,30.11,10.0,Calm,Calm,-,N/A,,Clear,0,2011-10-24 01:53:00
10:53 PM,50.0,48.0,93,30.12,9.0,Calm,Calm,-,N/A,,Clear,0,2011-10-24 02:53:00
11:53 PM,50.0,48.9,96,30.11,8.0,Calm,Calm,-,N/A,,Clear,0,2011-10-24 03:53:00